Orbital Elements at Epoch 2459200.5 (2020-Dec-17.0) TDB
Reference: JPL 14 (heliocentric ecliptic J2000)
Element | Value | Uncertainty (1-sigma) | Units |
e | .1664079603185294 | 5.0227e-08 | |
a | 2.267238693849839 | 1.0755e-08 | au |
q | 1.889952127251041 | 1.1628e-07 | au |
i | 4.060500845925161 | 5.5917e-06 | deg |
node | 344.4790994083714 | 6.5098e-05 | deg |
peri | 328.7808214138383 | 6.6845e-05 | deg |
M | 109.4205656552907 | 1.4539e-05 | deg |
tp | 2458821.498656964689 (2019-Dec-03.99865696) | 4.9838e-05 | TDB |
period | 1246.936375037053 3.41 | 8.8722e-06 2.429e-08 | d yr |
n | .2887075934321849 | 2.0542e-09 | deg/d |
Q | 2.644525260448638 | 1.2544e-08 | au |
|
| | Orbit Determination Parameters
Additional Information
|